OBJECT E, 51828

Orbit data source: Space-Track

You're viewing an Uncataloged Satellite

Recently launched and/or uncataloged satellites may have evolving metadata. Metadata may include but not limited to: Owner, Maufacturer, Bus, Motor, and Mission.

OBJECT E, 51828 is a satellite owned by Sanya RI (CN) in SSO that was launched on Sun, 27 Feb 2022 UTC via a CHANG ZHENG 8 launch vehicle from the Wenchang Satellite Launch Center (WSC). Unknown objects in Earth's orbit typically refer to objects detected orbiting the Earth but have not yet been identified or cataloged. These objects could be anything from previously untracked satellites, spent rocket stages, debris from satellite collisions, or even natural meteoroids temporarily captured by Earth's gravity.

Loading next visibility...
OBJECT E details
Identifier
51828, 2022-019E
Orbit
SSO
Last TLE update7 hours ago
Origin
Flag of CNSanya RI (CN / PRC)
ManufacturerWeina
MissionCivil Imaging
Bus & MotorMN50?, Unknown motor
Mass62 kg wet, 62 kg dry
Launch date (UTC)
2022-02-27 (3 years ago)
Launch vehicle
CHANG ZHENG 8
Launch site
Wenchang Satellite Launch Center (WSC)
Object typeUnknown
Shape & HBRBox + 2 Pan, 2 m
Radar Cross Section1.775 m², Medium (>0.1 m² and < 1m²)

Expand to show TLE details & history

TLE from 7 hours ago
0 OBJECT E
1 51828U 22019E   25014.94758137  .00015037  00000-0  41988-3 0  9993
2 51828  97.4132  96.2666 0009937 185.5016 174.6120 15.36767913159869
Epoch: 2025-01-14T22:44Z
Definitive object data (Epoch: 2025-01-14T22:44:31.03Z)
Latitude-0.00008°
Longitude0.49035°
Altitude465.55 km
Speed7.63 km/s
True Right ascension06h 25m 03s
True Declination0° 00' 00"
Sunlit
Object was in full shadow at TLE epoch
Visualization TLE readout
Latitude-70.78293°
Longitude22.59566°
Altitude483.593 km
Speed7.621 km/s
Apparent Right ascension18h 05m 19s
Apparent Declination-75° 14' 55"
Sunlit
Object is in daylight
Visualization observer readout
Local Sidereal Time06:53:51
Azimuth174.746° S
Elevation-54.238°
Doppler factor1
Orbital elements
Apogee altitude459.406 km
Perigee altitude445.83 km
Semi-major axis6,830.755 km
Eccentricity0.0009937
Inclination97.4132°
RAAN96.2666°
Arg. of periapsis185.5016°
True anomaly174.62268°
Mean anomaly174.612°
Eccentric anomaly174.61734°
Mean motion3.8445 °/min
BSTAR0.00041988
Orbital period93.64 mins
Loading maneuver chart data...
Loading historical data...
Loading historical data...
Loading historical data...
Loading historical data...
Loading historical data...
Loading historical data...
Loading historical data...

OBJECT E Visibility forecast

Observer location: undefined°, undefined

Span
Click to sort rows by Start time (UTC) header in descending order
Start Az.
Max El. time (UTC)
Max El. Az.
Max El.
End time (UTC)
End Az.
5 mins2025-01-15 18:03:30.530Z17.317° NNE2025-01-15 18:06:30.530Z156.201° SSE41.702°2025-01-15 18:08:30.530Z185.175° SSW
4 mins2025-01-16 04:35:30.530Z107.022° ESE2025-01-16 04:37:30.530Z60.166° ENE19.576°2025-01-16 04:39:30.530Z22.419° NNE
|